User: anonymous   Login
Location: Cherry Springs State Park
(41.6616°N, 77.8240°W)
Time: 19:09:45
(UTC-04:00)
Language:

Cosmos 1437 - Orbit

View from above orbital plane
View from above orbital plane
View from above satellite
View from above satellite

Ground track
Ground track

The orbit data is extracted from the following two-line orbital elements,

1 13770U 83003A   15247.47117411  .00007219  00000-0  17228-3 0  9999
2 13770  81.1606 223.3176 0009097  36.9451  91.8919 15.41329671785779
Epoch (UTC): 04 September 2015 11:18:29
Eccentricity: 0.0009097
inclination: 81.1606°
perigee height: 436 km
apogee height: 448 km
right ascension of ascending node: 223.3176°
argument of perigee: 36.9451°
revolutions per day: 15.41329671
mean anomaly at epoch: 91.8919°
orbit number at epoch: 78577

The dashed part of the orbit path shows where the satellite is in the earth's shadow,  

DLR